Weather in Huliaipole

Ukraine / Zaporizhia Region     47˚39′59″N   36˚15′11″E
temp.,
°C
wind,
m/s
gust,
m/s
humid.,
%
clouds,
%
prec.,
mm/h
press.,
hPa
HPBL,
m
2 december, wed
wed223:00+2˚e91378100 0.0 1025562
02:00+2˚ese71279100 0.0 1025577
05:00+1˚e71280100 0.0 1025551
08:00+2˚ese71380100 0.0 1026574
11:00+3˚ese71176100 0.0 1026670
14:00+4˚e71073100 0.0 1025664
17:00+3˚e61077100 0.0 1026622
20:00+3˚ese51180100 0.0 1026587
3 december, thu
thu323:00+4˚ese51085100 0.0 1026548
02:00+4˚se61088100 0.1 1026499
05:00+3˚se5987100 0.9 1026539
08:00+3˚se5985100 0.9 1026490
11:00+4˚se4684100 0.1 1026437
14:00+4˚ese4683100 0.1 1026421
17:00+4˚ese3685100 0.0 1026423
20:00+4˚ese4784100 0.0 1026451
4 december, fri
fri423:00+3˚ese4784100 0.0 1026406
02:00+3˚e488787 0.0 1026395
05:00+2˚e578799 0.0 1025445
08:00+2˚ese598799 0.0 1026488
11:00+4˚ese6882100 0.0 1025533
14:00+5˚ese6977100 0.0 1025559
17:00+4˚ese6117998 0.0 1026531
20:00+4˚ese7117999 0.0 1026551
5 december, sat
sat523:00+3˚ese61180100 0.0 1027532
02:00+2˚e5118674 0.0 1027434
05:00+1˚e5118222 0.0 1027415
08:00−1˚e6117911 0.0 1028420
11:00+2˚e69680 0.0 1029494
14:00+4˚e610620 0.0 1028564
17:00+1˚e512720 0.0 1028466
20:00−1˚e511690 0.0 1029447
6 december, sun
sun623:00−2˚e511670 0.0 1029413
02:00−3˚e612650 0.0 1030391
05:00−3˚e6126553 0.0 1030375
08:00−3˚e6126227 0.0 1030390
11:00+1˚e711590 0.0 1030511
14:00+2˚e711580 0.0 1028597
17:00−1˚e613680 0.0 1029525
20:00−2˚e714580 0.0 1029527